Mountain Loop
White Chuck
Latest observation 09/03 18:00 PDT
| Time (PDT) | Temp °F 5030' | RH % 5030' | Min mph 5030' | Spd mph 5030' | Gust mph 5030' | Dir ° 5030' | SnoHt in 5030' | SR W/m² 5030' |
|---|---|---|---|---|---|---|---|---|
| 09/03 18:00 | 40 | 97 | 0 | 1 | 5 | 109 | 1.5 | 50 |
| 09/03 17:00 | 40 | 94 | 0 | 2 | 10 | 105 | 1.8 | 84 |
| 09/03 16:00 | 42 | 97 | 0 | 1 | 3 | 83 | 1.7 | 92 |
| 09/03 15:00 | 42 | 92 | 0 | 0 | 3 | 61 | 1.2 | 142 |
| 09/03 14:00 | 43 | 89 | 0 | 0 | 2 | 55 | 1.1 | 218 |
| 09/03 13:00 | 43 | 92 | 0 | 1 | 3 | 30 | 1.1 | 220 |
| 09/03 12:00 | 42 | 96 | 0 | 0 | 3 | 72 | 1.1 | 130 |
| 09/03 11:00 | 41 | 96 | 0 | 0 | 2 | 35 | 1.0 | 126 |
| 09/03 10:00 | 39 | 98 | 0 | 0 | 5 | 23 | 1.0 | 55 |
| 09/03 09:00 | 39 | 96 | 0 | 0 | 4 | 83 | 1.1 | 48 |
| 09/03 08:00 | 38 | 95 | 0 | 0 | 3 | 106 | 1.1 | 25 |
| 09/03 07:00 | 38 | 96 | 0 | 0 | 3 | 55 | 1.0 | 2 |
| 09/03 06:00 | 37 | 95 | 0 | 1 | 5 | 101 | 1.0 | 0 |
| 09/03 05:00 | 37 | 94 | 0 | 1 | 5 | 114 | 1.1 | 0 |
| 09/03 04:00 | 37 | 96 | 0 | 0 | 6 | 97 | 0.9 | 0 |
| 09/03 03:00 | 37 | 99 | 0 | 0 | 1 | 133 | 1.2 | 0 |
| 09/03 02:00 | 37 | 96 | 0 | 0 | 4 | 347 | 1.0 | 0 |
| 09/03 01:00 | 38 | 100 | 0 | 0 | 3 | 303 | 0.9 | 0 |
| 09/03 00:00 | 39 | 100 | 0 | 0 | 2 | 279 | 1.0 | 0 |
| 09/02 23:00 | 39 | 100 | 0 | 1 | 3 | 265 | 1.1 | 0 |
| 09/02 22:00 | 39 | 100 | 0 | 1 | 3 | 271 | 1.3 | 0 |
| 09/02 21:00 | 42 | 100 | 0 | 1 | 3 | 279 | 1.7 | 0 |
| 09/02 20:00 | 42 | 98 | 0 | 1 | 10 | 25 | 1.6 | 4 |
| 09/02 19:00 | 42 | 94 | 0 | 2 | 8 | 309 | -1.1 | 17 |
| 09/02 18:00 | 45 | 99 | 0 | 0 | 3 | 238 | 1.1 | 14 |
| 09/02 17:00 | 46 | 96 | 0 | 0 | 2 | 271 | 0.3 | 62 |
| 09/02 16:00 | 46 | 94 | 0 | 0 | 2 | 259 | 1.0 | 69 |
| 09/02 15:00 | 50 | 80 | 0 | 0 | 2 | 276 | 0.2 | 202 |
| 09/02 14:00 | 48 | 89 | 0 | 0 | 2 | 234 | 0.5 | 204 |
| 09/02 13:00 | 48 | 92 | 0 | 1 | 5 | 262 | 1.0 | 305 |
| 09/02 12:00 | 47 | 92 | 0 | 1 | 7 | 302 | 0.9 | 271 |
| 09/02 11:00 | 46 | 94 | 0 | 1 | 5 | 297 | 1.3 | 315 |
| 09/02 10:00 | 45 | 97 | 0 | 1 | 5 | 335 | 1.4 | 156 |
| 09/02 09:00 | 44 | 100 | 0 | 0 | 3 | 284 | 1.3 | 57 |
| 09/02 08:00 | 44 | 100 | 0 | 0 | 3 | 283 | 1.4 | 17 |
| 09/02 07:00 | 43 | 100 | 0 | 0 | 3 | 281 | 1.4 | 1 |
| 09/02 06:00 | 44 | 100 | 0 | 0 | 3 | 289 | 1.3 | 0 |
| 09/02 05:00 | 44 | 97 | 0 | 0 | 4 | 48 | 0.7 | 0 |
| 09/02 04:00 | 44 | 100 | 0 | 0 | 4 | 310 | 0.8 | 0 |
| 09/02 03:00 | 45 | 100 | 0 | 0 | 3 | 287 | 0.8 | 0 |
| 09/02 02:00 | 45 | 100 | 0 | 0 | 2 | 293 | 1.0 | 0 |
| 09/02 01:00 | 45 | 100 | 0 | 0 | 2 | 287 | 0.7 | 0 |
| 09/02 00:00 | 45 | 99 | 0 | 0 | 1 | 301 | 0.5 | 0 |
| 09/01 23:00 | 45 | 100 | 0 | 0 | 2 | 265 | 0.7 | 0 |
| 09/01 22:00 | 46 | 99 | 0 | 0 | 2 | 257 | -0.4 | 0 |
| 09/01 21:00 | 47 | 99 | 0 | 0 | 3 | 251 | -0.4 | 0 |
| 09/01 20:00 | 47 | 99 | 0 | 0 | 2 | 214 | -0.9 | 2 |
| 09/01 19:00 | 48 | 97 | 0 | 0 | 1 | 255 | -0.9 | 9 |
| 09/01 18:00 | 48 | 96 | 0 | 0 | 1 | 255 | -0.7 | 32 |
| 09/01 17:00 | 51 | 93 | 0 | 0 | 2 | 256 | -0.2 | 69 |
| 09/01 16:00 | 52 | 91 | 0 | 1 | 4 | 266 | -0.2 | 165 |
| 09/01 15:00 | 55 | 86 | 0 | 1 | 4 | 256 | 0.6 | 226 |
| 09/01 14:00 | 57 | 82 | 0 | 0 | 2 | 256 | 0.6 | 348 |
| 09/01 13:00 | 59 | 73 | 0 | 1 | 3 | 262 | 0.5 | 622 |
| 09/01 12:00 | 61 | 67 | 0 | 0 | 4 | 250 | 0.6 | 537 |
| 09/01 11:00 | 59 | 70 | 0 | 1 | 2 | 265 | 0.4 | 445 |
| 09/01 10:00 | 58 | 66 | 0 | 0 | 3 | 199 | 0.6 | 290 |
| 09/01 09:00 | 55 | 70 | 0 | 0 | 1 | 140 | 0.6 | 85 |
| 09/01 08:00 | 53 | 68 | 0 | 0 | 0 | 143 | 0.9 | 60 |
| 09/01 07:00 | 52 | 68 | 0 | 0 | 0 | 143 | 0.7 | 8 |
| 09/01 06:00 | 55 | 52 | 0 | 0 | 1 | 167 | 0.7 | 0 |
| 09/01 05:00 | 56 | 51 | 0 | 0 | 1 | 175 | 0.8 | 0 |
| 09/01 04:00 | 56 | 47 | 0 | 0 | 5 | 210 | 0.9 | 0 |
| 09/01 03:00 | 57 | 46 | 0 | 0 | 3 | 81 | 0.4 | 0 |
| 09/01 02:00 | 58 | 45 | 0 | 0 | 2 | 127 | 0.7 | 0 |
| 09/01 01:00 | 58 | 46 | 0 | 1 | 3 | 145 | 0.8 | 0 |
| 09/01 00:00 | 58 | 47 | 0 | 1 | 5 | 135 | 0.9 | 0 |
| 08/31 23:00 | 59 | 47 | 0 | 1 | 5 | 96 | 0.7 | 0 |
| 08/31 22:00 | 58 | 51 | 0 | 0 | 3 | 147 | 1.0 | 0 |
| 08/31 21:00 | 58 | 56 | 0 | 0 | 1 | 128 | 0.8 | 0 |
| 08/31 20:00 | 59 | 59 | 0 | 0 | 2 | 118 | 0.5 | 17 |
| 08/31 19:00 | 61 | 56 | 0 | 0 | 2 | 34 | 0.6 | 41 |
| 08/31 18:00 | 62 | 56 | 0 | 0 | 3 | 299 | 0.7 | 66 |
| 08/31 17:00 | 62 | 55 | 0 | 0 | 2 | 112 | 1.0 | 71 |
| 08/31 16:00 | 64 | 53 | 0 | 1 | 3 | 294 | 0.1 | 406 |
| 08/31 15:00 | 65 | 51 | 0 | 1 | 4 | 311 | 0.1 | 620 |
| 08/31 14:00 | 65 | 51 | 0 | 1 | 5 | 289 | 0.4 | 629 |
| 08/31 13:00 | 64 | 48 | 0 | 1 | 6 | 325 | 0.5 | 625 |
| 08/31 12:00 | 63 | 50 | 0 | 1 | 5 | 116 | 0.7 | 617 |
| 08/31 11:00 | 62 | 53 | 0 | 1 | 6 | 251 | 0.8 | 518 |
| 08/31 10:00 | 60 | 56 | 0 | 1 | 5 | 265 | 0.8 | 334 |
| 08/31 09:00 | 57 | 64 | 0 | 0 | 3 | 140 | 0.7 | 94 |
| 08/31 08:00 | 54 | 67 | 0 | 0 | 5 | 81 | 0.8 | 56 |
| 08/31 07:00 | 51 | 72 | 0 | 0 | 3 | 96 | 0.9 | 9 |
| 08/31 06:00 | 50 | 74 | 0 | 0 | 4 | 118 | 0.7 | 0 |
| 08/31 05:00 | 49 | 76 | 0 | 0 | 2 | 166 | 0.8 | 0 |
| 08/31 04:00 | 48 | 75 | 0 | 1 | 2 | 114 | 0.7 | 0 |
| 08/31 03:00 | 46 | 85 | 0 | 0 | 2 | 101 | 0.7 | 0 |
| 08/31 02:00 | 44 | 90 | 0 | 1 | 2 | 95 | 0.7 | 0 |
| 08/31 01:00 | 42 | 98 | 0 | 1 | 2 | 80 | 0.8 | 0 |
| 08/31 00:00 | 42 | 98 | 0 | 0 | 2 | 74 | 1.0 | 0 |
| 08/30 23:00 | 42 | 99 | 0 | 2 | 3 | 65 | 1.0 | 0 |
| 08/30 22:00 | 42 | 100 | 0 | 2 | 4 | 66 | 1.1 | 0 |
| 08/30 21:00 | 43 | 99 | 0 | 1 | 2 | 73 | 1.2 | 0 |
| 08/30 20:00 | 44 | 95 | 0 | 0 | 2 | 58 | 1.2 | 10 |
| 08/30 19:00 | 45 | 94 | 0 | 0 | 1 | 7 | 1.2 | 48 |
| 08/30 18:00 | 45 | 94 | 0 | 0 | 2 | 358 | 1.2 | 100 |
| 08/30 17:00 | 46 | 92 | 0 | 1 | 2 | 314 | 1.2 | 139 |
| 08/30 16:00 | 45 | 93 | 0 | 0 | 3 | 318 | 1.1 | 121 |
| 08/30 15:00 | 46 | 91 | 0 | 1 | 4 | 312 | 1.3 | 206 |
| 08/30 14:00 | 46 | 88 | 0 | 1 | 2 | 314 | 1.2 | 234 |
| 08/30 13:00 | 43 | 93 | 0 | 0 | 3 | 313 | 1.2 | 139 |
| 08/30 12:00 | 42 | 95 | 0 | 0 | 2 | 324 | 1.1 | 132 |
| 08/30 11:00 | 42 | 96 | 0 | 0 | 2 | 316 | 1.2 | 128 |
| 08/30 10:00 | 41 | 98 | 0 | 0 | 4 | 302 | 0.8 | 157 |
| 08/30 09:00 | 40 | 100 | 0 | 0 | 2 | 323 | 1.1 | 48 |
| 08/30 08:00 | 39 | 100 | 0 | 1 | 3 | 297 | 0.9 | 26 |
| 08/30 07:00 | 39 | 100 | 0 | 0 | 2 | 257 | 0.8 | 4 |
| 08/30 06:00 | 39 | 100 | 0 | 0 | 1 | 69 | 1.0 | 0 |
| 08/30 05:00 | 39 | 99 | 0 | 0 | 2 | 328 | 1.0 | 0 |
| 08/30 04:00 | 40 | 99 | 0 | 0 | 2 | 171 | 0.9 | 0 |
| 08/30 03:00 | 40 | 99 | 0 | 0 | 1 | 125 | 1.0 | 0 |
| 08/30 02:00 | 40 | 100 | 0 | 0 | 3 | 109 | 1.0 | 0 |
| 08/30 01:00 | 40 | 99 | 0 | 0 | 1 | 198 | 1.0 | 0 |
| 08/30 00:00 | 40 | 97 | 0 | 0 | 4 | 203 | 0.8 | 0 |
| 08/29 23:00 | 39 | 97 | 0 | 0 | 3 | 182 | 0.9 | 0 |
| 08/29 22:00 | 39 | 94 | 0 | 0 | 3 | 131 | 0.7 | 0 |
| 08/29 21:00 | 39 | 99 | 0 | 1 | 3 | 248 | 0.7 | 0 |
| 08/29 20:00 | 40 | 98 | 0 | 1 | 4 | 147 | 1.0 | 20 |
| 08/29 19:00 | 42 | 99 | 0 | 1 | 4 | 156 | 0.8 | 53 |
| 08/29 18:00 | 43 | 98 | 0 | 0 | 3 | 229 | 0.9 | 97 |
| 08/29 17:00 | 44 | 98 | 0 | 1 | 3 | 263 | 0.9 | 206 |
| 08/29 16:00 | 43 | 100 | 0 | 0 | 3 | 226 | 1.1 | 121 |
| 08/29 15:00 | 43 | 99 | 0 | 0 | 3 | 190 | 0.3 | 126 |
| 08/29 14:00 | 41 | 100 | 0 | 1 | 8 | 166 | 1.1 | 112 |
| 08/29 13:00 | 40 | 100 | 0 | 1 | 6 | 217 | 1.2 | 74 |
| 08/29 12:00 | 40 | 99 | 0 | 1 | 6 | 175 | 1.5 | 51 |
| 08/29 11:00 | 41 | 100 | 0 | 1 | 4 | 152 | 1.4 | 74 |
| 08/29 10:00 | 41 | 100 | 0 | 1 | 5 | 157 | 1.2 | 99 |
| 08/29 09:00 | 40 | 100 | 0 | 0 | 4 | 185 | 1.4 | 32 |
| 08/29 08:00 | 40 | 100 | 0 | 0 | 3 | 205 | 0.7 | 6 |
| 08/29 07:00 | 41 | 100 | 0 | 0 | 1 | 193 | 1.2 | 2 |
| 08/29 06:00 | 42 | 100 | 0 | 0 | 1 | 200 | 1.3 | 0 |
| 08/29 05:00 | 42 | 100 | 0 | 0 | 2 | 247 | 1.5 | 0 |
| 08/29 04:00 | 43 | 100 | 0 | 0 | 2 | 224 | 0.8 | 0 |
| 08/29 03:00 | 43 | 99 | 0 | 0 | 2 | 173 | 0.4 | 0 |
| 08/29 02:00 | 44 | 98 | 0 | 0 | 2 | 256 | 2.0 | 0 |
| 08/29 01:00 | 45 | 98 | 0 | 0 | 2 | 258 | -1.1 | 0 |
| 08/29 00:00 | 45 | 98 | 0 | 0 | 1 | 249 | -0.9 | 0 |
| 08/28 23:00 | 45 | 97 | 0 | 0 | 1 | 248 | -1.1 | 0 |
| 08/28 22:00 | 45 | 98 | 0 | 0 | 2 | 248 | -1.2 | 0 |
| 08/28 21:00 | 46 | 97 | 0 | 0 | 2 | 247 | -0.6 | 0 |
| 08/28 20:00 | 47 | 96 | 0 | 0 | 3 | 238 | 0.2 | 5 |
| 08/28 19:00 | 49 | 89 | 0 | 0 | 3 | 243 | -0.1 | 53 |
| 08/28 18:00 | 50 | 86 | 0 | 1 | 3 | 263 | 0.2 | 116 |
| 08/28 17:00 | 53 | 79 | 0 | 1 | 5 | 272 | 0.8 | 193 |
| 08/28 16:00 | 55 | 74 | 0 | 1 | 5 | 258 | 1.0 | 450 |
| 08/28 15:00 | 56 | 70 | 0 | 1 | 4 | 268 | 0.7 | 579 |
| 08/28 14:00 | 56 | 69 | 0 | 2 | 5 | 293 | 1.2 | 645 |
| 08/28 13:00 | 53 | 76 | 0 | 1 | 3 | 256 | 1.0 | 370 |
| 08/28 12:00 | 53 | 78 | 0 | 1 | 3 | 286 | 0.8 | 436 |
| 08/28 11:00 | 49 | 88 | 0 | 1 | 4 | 300 | 1.0 | 258 |
| 08/28 10:00 | 46 | 97 | 0 | 0 | 0 | 199 | 0.6 | 110 |
| 08/28 09:00 | 45 | 99 | 0 | 0 | 0 | 180 | 0.5 | 57 |
| 08/28 08:00 | 45 | 99 | 0 | 0 | 1 | 155 | 0.2 | 12 |
| 08/28 07:00 | 45 | 99 | 0 | 0 | 0 | 155 | 0.3 | 2 |
| 08/28 06:00 | 44 | 96 | 0 | 0 | 0 | 155 | 0.2 | 0 |
| 08/28 05:00 | 44 | 98 | 0 | 0 | 0 | 155 | 0.6 | 0 |
| 08/28 04:00 | 45 | 98 | 0 | 0 | 0 | 155 | 0.6 | 0 |
| 08/28 03:00 | 44 | 99 | 0 | 0 | 1 | 203 | 0.7 | 0 |
| 08/28 02:00 | 44 | 99 | 0 | 0 | 0 | 235 | -0.5 | 0 |
| 08/28 01:00 | 46 | 97 | 0 | 0 | 0 | 235 | 0.2 | 0 |
| 08/28 00:00 | 46 | 97 | 0 | 0 | 1 | 235 | 0.0 | 0 |
| 08/27 23:00 | 46 | 96 | 0 | 0 | 0 | 234 | 0.2 | 0 |
| 08/27 22:00 | 47 | 95 | 0 | 0 | 2 | 255 | -0.9 | 0 |
| 08/27 21:00 | 47 | 94 | 0 | 0 | 1 | 273 | -0.9 | 0 |
| 08/27 20:00 | 48 | 93 | 0 | 0 | 1 | 259 | 0.8 | 5 |
| 08/27 19:00 | 48 | 91 | 0 | 0 | 1 | 278 | 0.6 | 19 |

